Flag for India Weather past 2 weeks in Kolkata, West Bengal, India

Now
66 °F

Haze.


Feels Like: 66 °F
Forecast: 52 / 75 °F
Wind: 9 mph from North

Location: Calcutta / Dum Dum

Current Time: Jan 31, 2015 at 10:30:09 AM

Latest Report: Jan 31, 2015 at 9:50 AM


Visibility: 1 mi

Pressure: 30.12 "Hg

Humidity: 60%

Dew point: 52 °F

Location of KolkataLocation

Historic Weather in Kolkata — Graph

°F

Kolkata temperature yesterday

Maximum temperature yesterday: 73 °F (at 12:50 PM)
Minimum temperature yesterday: 61 °F (at 11:50 PM)
Average temperature yesterday: 67 °F

Past Weeks' High & Low Weather Summary

 TemperatureHumidityPressure
High81 °F (Jan 23, 1:20 PM)100% (Jan 20, 7:20 AM)30.18 "Hg (Jan 20, 7:20 AM)
Low52 °F (Jan 20, 2:50 AM)28% (Jan 23, 1:20 PM)29.89 "Hg (Jan 16, 5:20 PM)
Average66 °F73%30.01 "Hg
* Reported Jan 16 8:50 AM — Jan 31 8:50 AM, Kolkata, Weather by CustomWeather, © 2014

Note: Actual official high and low records may vary slightly from our data, if they occured in-between our weather recording intervals... More about our weather records

Advertising

Kolkata weather history for previous 24 hours

 ConditionsComfort  
Time TempWeatherWind HumidityBarometerVisibility
8:50 AM
Jan 31
63 °FFog.8 mph73%30.12 "Hg1 mi
8:20 AM63 °FFog.5 mph73%30.09 "Hg1 mi
7:50 AM59 °FFog.5 mph77%30.09 "Hg1 mi
7:20 AM57 °FFog.3 mph82%30.09 "Hg1 mi
6:50 AM55 °FFog.5 mph88%30.07 "Hg1 mi
6:20 AM55 °FFog.No wind88%30.07 "Hg1 mi
5:50 AM55 °FFog.5 mph88%30.07 "Hg1 mi
5:20 AM54 °FFog.6 mph94%30.04 "Hg1 mi
4:50 AM55 °FFog.6 mph94%30.04 "Hg1 mi
4:20 AM55 °FFog.6 mph94%30.04 "Hg1 mi
3:50 AM57 °FFog.6 mph88%30.04 "Hg1 mi
3:20 AM57 °FFog.6 mph94%30.04 "Hg1 mi
2:50 AM59 °FFog.7 mph94%30.04 "Hg1 mi
2:20 AM59 °FFog.7 mph94%30.01 "Hg1 mi
1:50 AM59 °FFog.6 mph94%30.01 "Hg1 mi
12:50 AM61 °FFog.5 mph94%30.01 "Hg1 mi
12:20 AM61 °FCool.5 mph94%30.01 "Hg1 mi
11:50 PM
Jan 30
61 °FCool.5 mph94%30.07 "Hg1 mi
11:20 PM63 °FMild.No wind88%30.04 "Hg1 mi
10:20 PM63 °FFog.No wind88%30.04 "Hg1 mi
9:50 PM63 °FFog.No wind88%30.04 "Hg1 mi
9:20 PM64 °FFog.No wind83%30.04 "Hg1 mi
8:50 PM64 °FFog.No wind88%30.04 "Hg1 mi
8:20 PM64 °FFog.No wind88%30.01 "Hg1 mi
7:50 PM64 °FFog.No wind88%30.01 "Hg1 mi
7:20 PM66 °FFog.No wind83%30.01 "Hg1 mi
6:50 PM66 °FFog.No wind83%29.98 "Hg1 mi
6:20 PM68 °FHaze.No wind78%29.98 "Hg1 mi
5:50 PM70 °FHaze.3 mph69%29.95 "Hg2 mi
5:20 PM70 °FHaze.No wind69%29.95 "Hg2 mi
4:50 PM72 °FHaze.5 mph61%29.95 "Hg2 mi
4:20 PM72 °FHaze.5 mph65%29.95 "Hg2 mi
3:50 PM72 °FHaze.6 mph65%29.95 "Hg2 mi
3:20 PM73 °FHaze.7 mph61%29.98 "Hg2 mi
2:50 PM73 °FHaze.6 mph61%29.98 "Hg2 mi
2:20 PM73 °FScattered clouds.8 mph61%29.98 "Hg2 mi
1:50 PM73 °FScattered clouds.8 mph61%30.01 "Hg2 mi
1:20 PM73 °FScattered clouds.9 mph65%30.01 "Hg2 mi
12:50 PM73 °FScattered clouds.7 mph65%30.01 "Hg2 mi
12:20 PM72 °FPartly sunny.10 mph69%30.04 "Hg1 mi
11:50 AM72 °FPartly sunny.12 mph69%30.07 "Hg1 mi
11:20 AM70 °FPartly sunny.9 mph73%30.07 "Hg1 mi
10:50 AM68 °FFog.9 mph78%30.07 "Hg1 mi
10:20 AM68 °FFog.8 mph83%30.07 "Hg1 mi
Weather by CustomWeather, © 2014

See weather overviewHow to use our weather pages